Tyler, TX

10:43 AM CDT on August 17, 2017 (GMT -0500)
Tyler Pounds

Weather History for KTYR - March, 2015

Change the Weather History Date:

Sunday, March 8, 2015

  Actual Average Record
Temperature  
Mean Temperature 49 °F 55 °F  
Max Temperature 52 °F 65 °F 90 °F (1911)
Min Temperature 46 °F 45 °F 23 °F (1957)
Degree Days  
Heating Degree Days 16 10  
Month to date heating degree days 162 87  
Since 1 July heating degree days 2049 1979  
Cooling Degree Days 0 0  
Month to date cooling degree days 0 0  
Year to date cooling degree days 0 12  
Moisture  
Dew Point 43 °F    
Average Humidity 69    
Maximum Humidity 93    
Minimum Humidity 44    
Precipitation  
Precipitation 1.09 in 0.14 in 2.16 in (1990)
Month to date precipitation 2.99 1.10  
Year to date precipitation 10.31 7.97  
Snow  
Snow 0.00 in - - ()
Month to date snowfall 0.5  
Since 1 July snowfall 2.1  
Snow Depth 0.00 in    
Sea Level Pressure  
Sea Level Pressure 30.20 in    
Wind  
Wind Speed 7 mph (SSE)    
Max Wind Speed 14 mph    
Max Gust Speed 16 mph    
Visibility 6 miles    
Events Rain    
T = Trace of Precipitation, MM = Missing Value Source: NWS Daily Summary

Daily Weather History Graph

Daily Weather History Graph

Search for Another Location

Airport or City:

Trip Planner

Search our weather history database for the weather conditions in past years. The results will help you decide how hot, cold, wet, or windy it might be!

Date:

Astronomy

Mar. 08, 2015 Rise Set
Actual Time 7:40 AM CDT 7:24 PM CDT
Civil Twilight 7:16 AM CDT 7:48 PM CDT
Nautical Twilight 6:48 AM CDT 8:17 PM CDT
Astronomical Twilight 6:19 AM CDT 8:45 PM CDT
Moon 10:11 PM CDT (3/8) 9:09 AM CDT (3/8)
Length of Visible Light 12h 32m
Length of Day
11h 43m
Waning Gibbous, 92% of the Moon is Illuminated
Mar 8
Waning Gibbous
Mar 13
Last Quarter
Mar 20
New
Mar 27
First Quarter
Apr 4
Full

Hourly Weather History & Observations

Time (CDT) Temp. Windchill Dew Point Humidity Pressure Visibility Wind Dir Wind Speed Gust Speed Precip Events Conditions
12:53 AM 52.0 °F - 32.0 °F 47% 30.27 in 10.0 mi Calm Calm - N/A   Overcast
1:53 AM 52.0 °F - 33.1 °F 49% 30.26 in 10.0 mi South 3.5 mph - N/A   Overcast
3:53 AM 51.1 °F - 33.1 °F 50% 30.22 in 10.0 mi SE 6.9 mph - N/A   Overcast
4:53 AM 51.1 °F - 33.1 °F 50% 30.23 in 10.0 mi SSW 4.6 mph - N/A   Overcast
5:53 AM 51.1 °F - 30.9 °F 46% 30.22 in 10.0 mi South 6.9 mph - 0.00 in   Overcast
6:53 AM 52.0 °F - 30.9 °F 45% 30.23 in 10.0 mi South 11.5 mph - N/A   Overcast
7:53 AM 50.0 °F - 36.0 °F 59% 30.23 in 10.0 mi SSE 9.2 mph - 0.00 in Rain Light Rain
8:53 AM 46.9 °F - 42.1 °F 83% 30.23 in 5.0 mi SSE 4.6 mph - 0.04 in Rain Rain
9:21 AM 46.0 °F - 43.0 °F 89% 30.24 in 1.8 mi Calm Calm - 0.12 in Rain Heavy Rain
9:31 AM 46.0 °F - 43.0 °F 89% 30.24 in 2.0 mi Calm Calm - 0.15 in Rain Rain
9:44 AM 46.0 °F - 43.0 °F 89% 30.25 in 1.5 mi Calm Calm - 0.23 in Rain Heavy Rain
9:53 AM 46.0 °F - 44.1 °F 93% 30.25 in 1.5 mi Calm Calm - 0.29 in Rain Heavy Rain
10:04 AM 46.0 °F - 44.1 °F 93% 30.26 in 2.0 mi Calm Calm - 0.05 in Rain Heavy Rain
10:08 AM 46.0 °F - 44.1 °F 93% 30.27 in 1.8 mi Calm Calm - 0.06 in Rain Heavy Rain
10:15 AM 46.0 °F 44.8 °F 44.1 °F 93% 30.27 in 2.0 mi West 3.5 mph - 0.09 in Rain Heavy Rain
10:22 AM 46.0 °F 44.8 °F 43.0 °F 89% 30.27 in 2.5 mi WSW 3.5 mph - 0.11 in Rain Rain
10:32 AM 46.0 °F 44.8 °F 44.1 °F 93% 30.26 in 4.0 mi SW 3.5 mph - 0.13 in Rain Rain
10:41 AM 46.0 °F 42.5 °F 44.1 °F 93% 30.26 in 4.0 mi SSW 6.9 mph - 0.14 in Rain Rain
10:53 AM 46.0 °F 42.5 °F 43.0 °F 89% 30.25 in 4.0 mi SSW 6.9 mph - 0.17 in Rain Rain
10:56 AM 46.0 °F 42.5 °F 43.0 °F 89% 30.26 in 5.0 mi SSW 6.9 mph - 0.00 in Rain Light Rain
11:22 AM 46.0 °F 43.1 °F 43.0 °F 89% 30.25 in 4.0 mi South 5.8 mph - 0.04 in Rain Rain
11:24 AM 46.0 °F 43.1 °F 43.0 °F 89% 30.25 in 4.0 mi SSW 5.8 mph - 0.04 in Rain Light Rain
11:45 AM 46.0 °F 41.9 °F 44.1 °F 93% 30.26 in 7.0 mi SSW 8.1 mph - 0.06 in Rain Light Rain
11:53 AM 46.0 °F 41.9 °F 44.1 °F 93% 30.27 in 5.0 mi SSW 8.1 mph - 0.06 in Rain Light Rain
12:53 PM 46.9 °F - 44.1 °F 90% 30.25 in 5.0 mi SSW 8.1 mph - 0.10 in Rain Light Rain
1:20 PM 46.9 °F - 44.1 °F 90% 30.24 in 10.0 mi South 5.8 mph - 0.01 in Rain Light Rain
1:53 PM 48.0 °F - 44.1 °F 86% 30.22 in 10.0 mi South 4.6 mph - 0.01 in   Overcast
2:11 PM 48.0 °F - 44.1 °F 86% 30.21 in 7.0 mi South 6.9 mph - 0.00 in Rain Light Rain
2:32 PM 48.0 °F - 45.0 °F 89% 30.20 in 6.0 mi SSE 8.1 mph - 0.00 in Rain Light Rain
2:53 PM 48.0 °F - 45.0 °F 89% 30.17 in 4.0 mi SSE 5.8 mph - 0.02 in Rain Light Rain
3:53 PM 48.0 °F - 46.0 °F 93% 30.14 in 10.0 mi SE 6.9 mph - 0.06 in Rain Light Rain
4:53 PM 48.9 °F - 46.0 °F 90% 30.13 in 3.0 mi SE 8.1 mph - 0.05 in Rain Rain
5:53 PM 48.9 °F - 46.9 °F 93% 30.12 in 6.0 mi ESE 5.8 mph - 0.07 in Rain Light Rain
6:53 PM 48.9 °F - 46.9 °F 93% 30.11 in 5.0 mi SE 6.9 mph - 0.10 in Rain Rain
7:53 PM 48.9 °F - 46.9 °F 93% 30.12 in 10.0 mi SE 6.9 mph - 0.02 in Rain Light Rain
8:53 PM 48.9 °F - 46.9 °F 93% 30.12 in 7.0 mi ESE 6.9 mph - 0.02 in Rain Light Rain
9:24 PM 48.9 °F - 46.0 °F 90% 30.11 in 10.0 mi SE 8.1 mph - 0.01 in Rain Light Rain
9:53 PM 48.9 °F - 46.9 °F 93% 30.12 in 6.0 mi SE 6.9 mph - 0.03 in Rain Light Rain
10:00 PM 48.9 °F - 46.0 °F 90% 30.12 in 6.0 mi SE 8.1 mph - 0.00 in Rain Light Rain
10:53 PM 48.9 °F - 46.9 °F 93% 30.11 in 9.0 mi SE 8.1 mph - 0.02 in Rain Light Rain
11:23 PM 48.9 °F - 46.0 °F 90% 30.10 in 8.0 mi SE 9.2 mph - 0.01 in Rain Light Rain
11:53 PM 48.9 °F - 46.0 °F 90% 30.10 in 9.0 mi SE 8.1 mph - 0.02 in Rain Light Rain
12:11 AM 48.0 °F - 46.0 °F 93% 30.10 in 8.0 mi SE 5.8 mph - 0.00 in Rain Light Rain
12:53 AM 48.0 °F - 46.0 °F 93% 30.09 in 10.0 mi SE 8.1 mph - 0.01 in Rain Light Rain